Weather History for KNKT - July, 2013

Change the Weather History Date:

Saturday, July 20, 2013

  Actual Average Record
Temperature  
Mean Temperature 82 °F -  
Max Temperature 88 °F 84 °F 95 °F (2002)
Min Temperature 77 °F 69 °F 66 °F (2003)
Cooling Degree Days 18    
Growing Degree Days 32 (Base 50)    
Moisture  
Dew Point 72 °F    
Average Humidity 74    
Maximum Humidity 88    
Minimum Humidity 59    
Precipitation  
Precipitation 0.00 in - - ()
Sea Level Pressure  
Sea Level Pressure 30.04 in    
Wind  
Wind Speed 11 mph ()    
Max Wind Speed 18 mph    
Max Gust Speed 28 mph    
Visibility 9.9 miles    
Events      
Averages and records for this station are not official NWS values.
T = Trace of Precipitation, MM = Missing Value Source: Averaged Metar Reports

Daily Weather History Graph

Daily Weather History Graph

Search for Another Location

Airport or City:

Trip Planner

Search our weather history database for the weather conditions in past years. The results will help you decide how hot, cold, wet, or windy it might be!

Date:

Astronomy

Jul. 20, 2013 Rise Set
Actual Time 6:08 AM EDT 8:18 PM EDT
Civil Twilight 5:40 AM EDT 8:47 PM EDT
Nautical Twilight 5:05 AM EDT 9:22 PM EDT
Astronomical Twilight 4:27 AM EDT 9:59 PM EDT
Moon 6:20 PM EDT (7/20) 3:46 AM EDT (7/20)
Length of Visible Light 15h 07m
Length of Day
14h 10m
Waxing Gibbous, 93% of the Moon is Illuminated
Jul 20
Waxing Gibbous
Jul 22
Full
Jul 29
Last Quarter
Aug 6
New
Aug 14
First Quarter

Hourly Weather History & Observations

Time (EDT) Temp. Heat Index Dew Point Humidity Pressure Visibility Wind Dir Wind Speed Gust Speed Precip Events Conditions
12:54 AM 78.1 °F - 73.0 °F 84% 30.07 in 10.0 mi SW 9.2 mph - N/A   Clear
2:33 AM 79.0 °F - 73.0 °F 82% 30.06 in 10.0 mi SSW 9.2 mph - N/A   Mostly Cloudy
2:54 AM 79.0 °F - 73.0 °F 82% 30.05 in 10.0 mi SW 15.0 mph - N/A   Mostly Cloudy
3:54 AM 79.0 °F - 72.0 °F 79% 30.04 in 10.0 mi SW 12.7 mph - N/A   Partly Cloudy
4:18 AM 79.0 °F - 73.0 °F 82% 30.06 in 9.0 mi WSW 10.4 mph - N/A   Mostly Cloudy
4:33 AM 78.1 °F - 73.0 °F 84% 30.06 in 10.0 mi WSW 11.5 mph - 0.00 in   Mostly Cloudy
4:54 AM 78.1 °F - 73.0 °F 84% 30.05 in 10.0 mi WSW 10.4 mph - 0.00 in   Mostly Cloudy
5:54 AM 77.0 °F - 73.0 °F 88% 30.06 in 10.0 mi SW 8.1 mph - N/A   Scattered Clouds
6:54 AM 77.0 °F - 73.0 °F 88% 30.05 in 10.0 mi SW 6.9 mph - N/A   Scattered Clouds
7:54 AM 79.0 °F - 72.0 °F 79% 30.07 in 10.0 mi WSW 12.7 mph - N/A   Clear
8:54 AM 82.0 °F 86.3 °F 71.1 °F 69% 30.07 in 10.0 mi West 12.7 mph 23.0 mph N/A   Clear
9:54 AM 82.9 °F 87.5 °F 71.1 °F 67% 30.07 in 10.0 mi WSW 17.3 mph 26.5 mph N/A   Clear
10:54 AM 84.9 °F 90.1 °F 71.1 °F 63% 30.07 in 10.0 mi SW 18.4 mph - N/A   Partly Cloudy
11:54 AM 86.0 °F 91.5 °F 71.1 °F 61% 30.06 in 10.0 mi SW 13.8 mph 20.7 mph N/A   Mostly Cloudy
12:54 PM 88.0 °F 96.5 °F 73.9 °F 63% 30.04 in 9.0 mi SW 11.5 mph 20.7 mph N/A   Partly Cloudy
1:54 PM 87.1 °F 94.5 °F 73.0 °F 63% 30.02 in 10.0 mi WSW 13.8 mph 23.0 mph N/A   Scattered Clouds
2:54 PM 87.1 °F 94.5 °F 73.0 °F 63% 30.01 in 10.0 mi South 13.8 mph 24.2 mph N/A   Partly Cloudy
3:54 PM 86.0 °F 93.0 °F 73.0 °F 65% 29.99 in 10.0 mi SSW 15.0 mph 24.2 mph N/A   Partly Cloudy
4:54 PM 84.9 °F 88.8 °F 69.1 °F 59% 29.99 in 10.0 mi SW 17.3 mph 26.5 mph N/A   Scattered Clouds
5:54 PM 82.0 °F 86.3 °F 71.1 °F 69% 29.98 in 10.0 mi SSW 15.0 mph 24.2 mph N/A   Mostly Cloudy
6:54 PM 82.0 °F 86.3 °F 71.1 °F 69% 29.99 in 10.0 mi SSW 17.3 mph 25.3 mph N/A   Scattered Clouds
7:54 PM 80.1 °F 83.6 °F 71.1 °F 74% 30.00 in 10.0 mi SW 13.8 mph 27.6 mph N/A   Mostly Cloudy
8:54 PM 79.0 °F - 72.0 °F 79% 30.02 in 10.0 mi SW 13.8 mph 21.9 mph N/A   Scattered Clouds
9:54 PM 79.0 °F - 70.0 °F 74% 30.03 in 10.0 mi SW 13.8 mph 20.7 mph N/A   Scattered Clouds
10:54 PM 79.0 °F - 70.0 °F 74% 30.04 in 10.0 mi SW 10.4 mph - N/A   Partly Cloudy
11:54 PM 78.1 °F - 70.0 °F 76% 30.03 in 10.0 mi SW 10.4 mph - N/A   Partly Cloudy